{"data":{"norad_id":62478,"epoch":"2026-09-21T12:39:08.300160Z","epoch_age_seconds":85781,"freshness":"FRESH","line1":"1 62478U 24254S   26264.52717940  .00010561  00000+0  39261-3 0  9995","line2":"2 62478  42.9994 350.3910 0000616 229.5400 130.5398 15.27591440 97601","mean_motion":15.2759144,"eccentricity":6.16e-5,"inclination_deg":42.9994,"raan_deg":350.391,"arg_perigee_deg":229.54,"mean_anomaly_deg":130.5398,"bstar":0.00039261,"rev_number":9760,"period_min":94.266042758134,"perigee_km":482.59219382452,"apogee_km":483.43748773131,"semimajor_km":6861.1518407779,"source":"CELESTRAK","updated_at":"2026-09-22T09:00:49.614451Z"}}